Wind_Speed
66 66 67 67 67 68 68 68 69 69 69 70 70 70 70 69 69 68 67 66 65 65 64 64 64 64 64 65 65 64 64 64 64 64 67 73 76 75 70 68 68 69 70 69 68 67 67 65 62 59 57 57 57 56 55 54 53 53 52 52 52 52 52 53 53 54 55 55 56 56 55 55 55 56 57 59 60 60 60 59 58 56 54 52 49 48
67 67 68 68 68 68 69 70 70 70 70 70 70 70 70 70 70 69 68 67 66 65 64 64 63 63 63 63 64 64 64 64 63 64 68 74 76 73 69 69 70 72 73 72 72 71 71 71 68 65 61 59 59 58 58 57 57 56 55 55 54 54 54 55 55 56 56 57 57 57 57 57 57 57 58 59 60 61 61 60 59 57 55 52 50 48
69 69 69 69 69 70 70 71 71 71 71 71 71 71 71 71 70 70 69 68 68 67 66 65 64 63 63 63 63 64 65 64 64 66 70 74 76 76 73 73 74 76 77 76 76 75 75 74 72 69 65 62 61 60 60 61 61 60 59 59 58 58 57 57 57 57 58 59 59 59 60 60 60 59 60 60 61 61 60 60 59 57 55 53 50 48
71 71 71 71 71 71 71 72 72 72 72 72 72 72 72 72 72 71 71 70 70 69 68 67 66 64 63 64 65 66 67 67 68 69 72 75 77 78 78 78 78 79 80 79 78 77 75 74 72 70 67 64 63 62 63 63 63 63 63 62 62 61 60 59 59 59 59 60 61 61 62 62 62 62 61 60 60 59 59 59 58 57 55 53 51 49
73 73 73 73 72 72 73 73 73 73 73 73 73 73 73 73 73 73 73 72 72 71 70 69 68 66 65 65 67 69 70 71 72 73 74 76 77 78 79 80 81 81 82 81 79 77 76 73 71 69 67 65 65 64 64 65 65 65 65 65 65 65 64 63 61 61 61 62 62 63 64 64 64 63 61 59 58 57 57 57 57 56 55 54 51 49
75 75 75 75 74 74 74 74 74 75 74 74 74 74 74 75 75 74 74 74 73 73 73 72 70 68 67 68 70 72 73 74 75 75 76 76 77 77 78 79 80 81 81 81 80 78 76 74 71 68 66 65 65 65 65 65 65 65 66 67 68 68 67 66 65 64 63 63 64 65 66 66 65 63 61 58 56 55 54 55 55 56 55 54 53 51
76 76 76 76 76 76 76 76 76 76 76 76 76 76 76 76 76 75 75 75 75 74 74 73 72 71 70 71 73 75 76 76 77 77 77 77 77 77 77 77 78 79 80 80 80 79 77 75 72 69 66 65 65 65 65 65 65 66 67 69 69 70 70 69 68 67 66 66 66 67 68 67 66 63 60 57 55 53 53 54 54 55 55 55 54 52
76 76 76 76 76 76 76 77 77 77 77 76 76 76 75 75 75 75 75 75 75 75 74 74 74 73 73 74 76 78 78 78 79 79 80 80 79 79 79 78 78 78 79 80 80 79 77 75 72 69 66 65 65 65 65 65 66 67 69 70 71 71 71 71 71 70 69 68 68 69 69 68 67 64 60 57 55 53 53 53 54 55 56 56 55 54
76 76 76 76 76 76 76 76 76 76 76 76 76 75 74 74 74 74 74 74 74 74 74 74 74 75 76 77 79 80 81 81 81 81 82 82 82 82 81 81 80 80 80 80 80 79 77 75 72 70 68 67 67 67 67 67 68 69 70 71 71 72 73 73 72 71 71 70 70 70 69 68 66 63 60 57 55 53 53 53 54 55 56 56 56 56
75 75 75 75 75 75 74 75 75 75 74 74 74 74 73 73 72 72 72 72 72 72 72 73 74 75 76 77 79 81 81 82 82 82 83 83 83 83 83 82 82 81 81 81 80 79 77 76 74 72 71 71 70 70 70 70 70 71 71 71 71 72 73 73 73 72 71 71 70 70 69 67 65 62 60 57 55 54 54 54 54 55 56 57 57 57
74 74 74 74 74 74 73 73 73 73 73 73 73 73 73 72 71 71 70 70 71 71 71 72 72 73 74 76 77 79 80 81 81 82 82 83 83 83 82 82 82 81 81 80 80 79 78 77 76 75 74 74 74 73 73 72 72 71 71 71 70 71 71 71 71 71 70 70 69 68 67 65 63 61 59 57 56 55 54 54 55 56 56 57 57 57
72 72 72 72 72 72 72 72 72 72 71 71 71 71 71 71 71 71 71 71 71 71 71 72 72 72 73 74 75 76 77 78 79 80 81 81 81 81 81 81 81 80 80 80 79 79 78 77 77 76 76 75 75 74 73 72 72 71 70 70 69 69 69 69 69 69 68 68 67 67 65 64 62 60 59 57 56 56 55 55 56 56 57 57 58 58
70 70 70 70 70 69 69 70 70 70 70 70 70 71 71 72 72 72 72 72 72 72 72 73 73 73 74 74 75 76 77 77 78 79 79 80 80 80 80 80 80 79 79 79 78 78 78 77 77 77 76 75 75 74 73 72 72 71 70 70 69 68 67 67 67 66 66 66 65 65 64 63 62 60 59 58 57 57 56 56 57 57 57 58 58 58
68 68 68 68 68 68 68 68 68 69 69 70 70 71 72 72 72 72 73 73 73 73 73 74 74 74 75 75 76 77 77 78 78 78 79 79 79 79 79 79 79 79 79 78 78 77 77 77 77 76 76 75 75 74 74 73 72 72 71 71 70 69 68 67 66 66 65 65 64 64 63 63 62 61 60 59 58 58 58 58 58 58 58 59 59 59
67 67 67 67 67 67 68 68 69 69 70 70 71 72 72 73 73 73 74 74 74 74 75 75 75 75 75 76 77 77 78 78 78 78 79 79 79 79 79 79 79 79 79 78 78 78 78 78 78 77 77 77 76 76 75 75 74 74 73 73 72 72 71 70 68 67 66 65 65 64 63 63 63 62 61 60 60 59 59 59 59 60 60 60 60 61
67 68 68 68 69 69 70 70 71 71 72 73 73 73 74 74 75 75 75 76 76 76 76 76 76 77 77 77 77 78 79 79 79 79 79 79 79 80 80 80 80 80 80 79 79 80 80 79 80 79 79 79 78 78 78 77 77 76 76 75 75 74 74 73 72 70 69 68 67 66 65 65 64 64 63 62 62 61 61 61 61 61 61 62 62 62
70 70 71 71 72 72 73 73 74 74 75 76 76 76 77 77 77 77 78 78 78 78 78 79 79 79 79 79 79 80 81 81 81 81 80 80 81 81 81 81 82 82 81 81 81 81 82 82 82 82 82 82 81 81 80 80 79 79 78 78 77 77 76 76 75 74 73 71 70 69 68 67 66 66 65 65 64 64 63 63 63 63 63 64 64 64
73 73 74 74 75 75 76 76 77 77 78 79 79 79 80 80 80 80 81 81 81 81 81 81 81 81 81 81 82 82 83 83 84 84 83 83 83 83 83 83 84 84 83 83 83 84 84 84 84 84 84 84 84 84 83 83 82 82 81 81 80 79 79 78 78 77 76 75 74 72 71 70 69 68 68 67 67 66 66 66 65 66 66 66 66 66
75 76 76 77 78 78 78 79 80 80 81 81 82 82 82 83 83 83 84 84 84 84 84 84 84 84 84 84 85 85 86 86 86 86 86 86 85 85 86 86 86 86 86 86 86 86 86 86 86 86 86 86 86 86 86 86 85 85 84 84 83 82 82 81 80 80 79 78 77 76 75 74 73 72 71 70 69 69 68 68 68 68 68 68 68 68
78 78 79 80 80 81 81 82 82 83 84 84 84 85 85 85 86 86 86 87 87 87 87 87 87 87 87 87 88 88 88 89 89 89 89 88 88 88 88 88 89 89 89 88 88 88 89 89 89 89 88 88 88 88 88 88 88 87 87 87 86 85 85 84 83 83 82 81 80 79 78 77 76 75 74 73 73 72 71 71 70 70 70 70 70 70
80 81 81 82 83 83 84 84 85 86 86 87 87 87 88 88 88 88 89 89 89 90 90 90 90 90 90 90 90 91 91 91 92 92 91 91 90 90 90 91 91 91 91 91 91 91 91 91 91 91 91 91 91 91 91 90 90 90 90 89 89 88 88 87 86 86 85 84 83 82 82 81 80 79 78 77 76 75 74 74 73 73 73 72 72 72
83 83 84 84 85 86 87 87 88 88 89 89 90 90 91 91 91 91 91 92 92 92 92 93 93 92 92 92 93 93 94 94 94 94 94 93 93 93 93 93 94 94 94 94 93 93 94 94 94 93 93 93 93 93 93 93 92 92 92 92 91 91 91 90 90 89 88 87 86 86 85 84 83 82 81 80 79 78 77 77 76 75 75 75 75 75
85 86 87 87 88 89 89 90 90 91 92 92 93 93 94 94 94 94 94 94 95 95 95 95 95 95 95 95 96 96 96 97 97 97 97 96 96 96 96 96 96 97 97 96 96 96 96 96 96 96 96 95 95 95 95 95 95 94 94 94 94 94 93 93 92 92 91 90 90 89 88 87 86 85 85 84 83 82 81 80 79 78 78 78 77 77
88 89 90 90 91 92 92 93 93 94 94 95 96 96 96 97 97 97 97 97 97 98 98 98 98 98 98 98 98 98 99 99 99 99 99 99 99 99 98 98 99 99 99 99 99 98 98 98 98 98 98 98 98 98 97 97 97 97 96 96 96 96 96 95 95 95 94 93 93 92 91 90 89 89 88 87 86 85 84 83 82 81 81 80 80 80
92 92 93 93 94 95 95 96 96 97 97 98 98 99 99 100 100 100 100 100 100 101 101 101 101 101 101 100 100 100 101 102 102 102 102 102 102 101 101 101 101 101 102 102 101 101 101 101 101 100 100 100 100 100 99 99 99 99 99 98 98 98 98 98 98 97 97 96 96 95 94 93 93 92 91 90 89 88 87 86 85 85 84 83 83 82
95 95 96 96 97 98 98 99 99 100 100 101 102 102 102 103 103 103 103 103 103 103 104 104 104 104 104 103 103 103 104 104 104 104 105 105 105 104 104 104 103 103 104 104 104 103 103 103 103 102 102 102 102 102 101 101 101 101 101 101 100 100 100 100 100 100 99 99 98 98 97 96 96 95 94 93 92 91 90 89 88 88 87 86 85 85
98 98 99 99 100 101 101 102 102 103 103 104 105 105 106 106 106 106 106 106 106 106 106 107 107 107 107 106 106 106 106 107 107 107 108 108 107 107 107 107 107 106 106 107 106 106 105 105 105 104 104 104 104 103 103 103 103 103 103 103 103 103 103 102 102 102 101 101 101 100 100 99 98 98 97 96 95 94 93 92 91 90 90 89 88 87
101 101 102 102 103 104 104 105 105 106 107 107 108 109 109 109 109 109 110 110 110 110 110 110 110 110 110 110 110 110 110 110 110 111 111 111 110 111 111 111 110 110 110 110 110 109 108 108 107 107 107 106 106 106 105 105 105 105 105 105 105 105 105 105 105 104 104 103 103 103 102 102 101 100 100 99 98 97 96 95 94 93 93 92 91 90
104 105 105 106 107 107 108 108 109 109 110 111 111 112 112 112 112 112 113 114 113 113 113 114 114 114 114 114 113 113 113 113 114 115 115 114 114 115 115 115 114 113 114 114 114 113 112 111 111 111 110 110 109 109 109 109 108 108 108 108 108 108 108 108 107 107 106 106 105 105 104 104 103 103 102 101 100 100 99 98 97 96 95 94 93 92
107 108 108 109 110 110 111 111 112 112 113 113 113 114 114 114 114 114 115 115 114 114 114 115 115 115 115 115 114 114 114 114 116 116 116 114 115 116 117 116 116 116 117 117 116 116 116 116 115 114 114 113 113 113 112 112 112 112 112 112 112 111 111 111 110 110 109 108 108 107 107 106 106 105 105 104 103 102 101 101 100 99 98 97 96 95
108 108 108 109 110 110 110 110 111 111 111 111 111 111 111 111 111 111 111 111 111 110 110 111 111 111 111 111 109 109 109 111 113 113 111 109 110 114 115 113 113 115 117 116 115 114 116 117 117 116 116 115 116 116 116 115 115 115 115 115 115 115 114 114 114 113 112 112 111 110 110 109 108 108 107 106 106 105 104 104 103 102 101 100 99 97
104 104 104 104 104 103 103 103 103 103 102 102 102 102 102 102 102 102 102 102 102 102 102 102 102 102 102 102 100 99 101 102 103 103 102 100 102 106 107 105 104 107 110 111 109 109 110 113 114 114 114 113 114 115 115 116 116 116 116 116 116 116 116 116 116 116 115 115 115 114 113 112 112 111 110 110 109 108 107 107 106 105 104 103 102 100
94 94 94 93 93 92 92 91 91 90 90 90 90 90 90 90 90 90 90 90 90 89 89 89 89 90 90 89 89 88 89 90 90 90 89 88 90 93 95 94 93 95 98 100 100 101 102 104 106 107 107 107 108 109 110 111 112 112 113 113 114 114 115 116 116 116 116 117 117 116 116 116 115 114 114 113 112 112 111 110 109 109 108 106 105 104
82 82 81 81 80 80 79 79 78 78 77 77 77 77 77 76 76 76 76 76 76 76 75 75 75 75 75 75 75 75 75 76 76 76 75 75 77 80 82 81 80 82 84 86 87 89 90 92 94 95 96 97 99 99 100 101 103 104 106 106 107 109 110 111 112 112 114 115 116 116 117 117 117 117 117 116 116 115 114 113 113 112 111 110 108 107
69 69 69 68 67 67 67 66 66 65 65 65 65 64 64 64 64 64 63 63 63 63 62 62 61 61 61 61 60 61 61 62 63 62 62 63 66 68 69 69 70 71 71 73 75 76 77 79 81 82 83 84 86 88 89 89 91 93 95 97 98 99 102 103 104 105 107 109 111 112 114 115 116 117 117 118 118 117 117 116 116 115 114 113 112 110
58 57 57 57 56 56 55 55 55 55 54 54 54 54 53 53 53 53 52 52 51 51 51 51 50 50 49 49 49 49 50 51 51 51 52 54 56 57 58 59 61 61 61 63 65 67 67 68 69 71 71 71 73 75 77 78 79 80 83 85 87 89 91 93 94 96 98 100 102 104 107 109 110 112 114 115 116 117 117 117 117 117 116 116 115 114
48 48 48 48 47 47 47 47 47 46 46 46 46 45 45 44 44 44 44 43 43 43 42 42 42 41 41 41 41 41 42 43 44 45 46 48 49 50 51 53 55 55 55 56 58 60 60 60 60 61 62 62 62 64 66 67 68 68 71 74 76 77 79 81 84 86 88 90 92 95 97 99 101 104 106 109 111 112 114 115 116 116 117 117 116 116
43 43 43 43 42 42 41 41 41 41 40 40 40 40 39 39 38 38 38 38 37 37 37 37 36 36 36 37 37 38 39 40 42 43 45 46 47 48 49 50 51 52 53 53 54 55 56 55 55 56 56 56 56 56 57 58 59 60 62 65 66 66 68 71 73 75 77 79 82 85 87 89 91 94 97 100 102 104 106 109 111 113 114 115 115 116
41 41 41 41 40 40 40 39 39 39 38 38 37 37 36 36 36 35 35 35 35 34 34 34 34 35 36 37 38 39 40 42 43 45 46 48 49 50 50 51 51 52 53 53 53 53 54 53 53 53 53 53 52 53 53 53 53 54 56 57 57 58 60 62 63 65 67 69 71 74 76 79 81 83 86 89 92 94 97 100 103 105 107 109 111 113
42 42 42 41 41 40 40 39 39 38 38 37 37 37 36 36 35 35 35 35 35 35 35 35 35 36 37 39 40 42 44 45 47 48 50 51 52 52 52 52 52 53 53 53 53 53 53 52 52 52 52 51 51 51 50 50 50 51 51 51 51 52 53 54 55 56 58 60 62 64 66 69 71 73 76 79 82 84 87 90 93 96 99 101 103 106
43 43 43 42 42 42 41 41 40 40 39 39 38 38 37 37 36 36 36 36 36 36 36 36 37 38 40 41 43 45 47 48 50 51 53 54 54 54 53 53 52 52 52 52 51 51 51 51 50 50 50 50 50 49 49 48 48 48 48 47 48 49 49 48 49 50 52 53 54 56 58 60 62 64 67 69 72 75 78 80 83 86 89 92 95 98
44 44 44 44 44 43 43 43 42 42 41 40 40 39 39 38 38 37 37 38 38 38 38 38 39 40 41 43 45 47 49 51 52 53 54 54 54 53 52 51 50 49 48 48 48 48 47 47 47 47 47 47 46 46 46 46 46 46 46 46 47 46 46 46 46 47 48 48 49 50 51 52 54 56 58 60 63 65 68 70 73 76 79 82 85 89
45 45 45 45 45 45 45 45 44 44 43 42 42 41 41 40 40 39 39 39 39 39 40 40 41 41 43 44 46 48 50 51 52 52 52 51 50 48 46 45 43 43 42 41 41 41 41 41 41 41 42 42 42 42 42 42 42 43 43 44 44 44 43 44 45 45 45 45 46 46 47 47 49 50 51 52 54 56 58 60 63 66 69 72 75 78
45 46 46 46 46 46 46 46 46 45 45 45 44 44 43 42 42 41 41 41 41 41 41 41 42 42 43 44 46 47 48 49 49 48 46 44 41 39 37 36 35 34 34 33 33 33 33 33 34 35 35 36 36 36 37 37 37 38 39 40 41 41 41 42 42 42 42 43 44 44 44 45 46 46 46 46 47 48 50 51 53 56 59 62 65 68
44 45 45 45 46 46 46 46 46 46 46 46 45 45 44 44 43 42 42 41 41 41 41 41 41 42 43 43 44 44 44 43 42 41 39 36 34 32 31 31 30 30 30 29 29 29 29 29 29 30 30 31 31 31 31 32 32 33 35 36 37 38 39 39 39 40 41 42 42 43 44 44 44 44 43 43 43 43 44 45 46 48 50 52 55 58
43 43 43 44 44 44 45 45 45 45 45 45 45 44 44 43 42 42 41 40 40 39 40 40 40 40 40 40 40 39 38 37 36 35 33 32 31 30 30 31 31 31 31 31 31 30 30 30 30 30 30 30 30 29 29 30 30 31 32 33 34 35 36 36 37 38 39 40 41 42 43 44 43 43 42 41 41 40 40 41 41 42 43 45 46 49
42 42 42 42 43 43 43 43 43 43 43 43 43 42 42 41 40 39 38 38 37 37 37 37 37 37 36 36 35 34 33 32 31 32 32 32 32 33 33 34 34 34 35 35 35 34 34 34 34 34 34 33 33 32 32 32 32 33 33 33 34 34 34 35 36 37 38 39 40 41 42 43 43 43 42 41 40 39 39 38 38 38 39 39 40 42
42 42 42 42 42 42 42 41 41 41 41 40 40 40 39 38 37 36 35 35 34 34 34 33 33 33 32 32 31 30 30 29 30 31 32 33 34 35 35 36 36 36 37 37 37 37 37 37 37 37 37 37 37 37 36 36 36 37 37 37 37 36 36 36 36 37 38 39 40 41 42 43 43 43 42 41 40 39 38 37 37 37 36 36 36 37
41 41 41 41 41 41 40 40 40 39 38 38 37 37 36 35 33 32 32 31 31 30 30 29 29 29 28 28 28 28 29 29 30 32 33 34 34 35 35 36 36 36 36 36 36 36 36 37 37 37 38 39 39 40 40 40 40 40 40 40 40 40 40 39 39 38 39 39 40 41 42 43 43 43 42 41 40 39 38 37 36 36 35 35 34 34
41 41 40 40 40 39 39 39 38 37 36 35 34 34 33 32 30 30 29 28 28 27 27 26 26 25 25 26 27 28 29 29 30 31 32 33 33 34 34 34 34 35 35 35 35 35 35 36 36 36 37 38 40 41 41 42 42 42 43 43 43 43 43 42 41 41 40 41 41 41 42 42 43 43 42 41 41 39 38 37 36 35 35 34 33 33
41 41 40 39 39 38 38 37 36 35 34 33 32 31 30 29 28 27 26 26 25 24 24 23 23 23 24 25 26 27 28 29 30 31 31 32 32 33 33 34 34 34 34 34 34 34 35 35 36 36 37 38 40 41 42 43 43 43 43 44 44 44 45 44 44 43 43 42 42 42 42 42 42 42 42 42 41 40 39 37 36 35 35 34 33 32
Wind_Direction
274 274 274 274 274 274 274 274 274 273 273 273 273 273 273 272 272 271 270 269 268 267 267 266 267 267 268 268 269 269 269 269 269 271 273 274 272 269 266 265 264 264 264 264 265 266 268 269 269 268 266 264 262 261 262 264 266 269 271 272 273 274 274 274 274 274 273 272 271 270 269 268 268 269 269 270 270 269 268 265 263 261 260 259 258 258
274 274 274 274 274 274 274 274 274 274 273 273 273 273 272 272 271 270 269 268 267 266 266 266 266 266 267 267 268 269 269 269 269 269 271 270 268 265 263 263 263 264 265 265 267 269 270 271 272 271 269 265 262 260 260 262 264 267 270 272 273 274 274 275 275 275 274 274 273 272 271 269 268 268 268 269 269 268 267 265 262 260 258 257 256 256
274 274 274 274 274 274 274 274 274 274 273 273 273 272 272 271 270 269 268 267 266 266 265 265 265 266 267 268 269 269 269 268 267 266 267 267 265 263 262 263 264 266 267 269 271 273 274 275 274 273 271 267 263 260 259 260 262 266 269 272 273 273 274 275 275 275 274 274 273 272 271 270 268 267 267 267 266 266 265 263 261 259 257 255 254 254
274 275 274 274 274 274 274 274 274 274 273 273 273 272 271 270 270 269 268 267 266 265 265 265 265 266 267 268 268 268 267 266 264 263 263 263 263 263 263 263 265 267 269 271 274 276 277 277 276 274 271 267 263 259 258 259 261 265 270 273 274 274 273 274 274 275 274 274 273 272 271 269 268 266 265 265 265 264 263 262 259 257 255 254 253 252
275 275 275 275 274 274 274 274 274 273 273 273 272 271 271 270 269 269 268 267 266 266 265 265 265 265 265 266 266 266 265 265 263 262 262 262 263 263 264 264 265 267 269 271 274 276 278 277 276 274 271 267 263 260 258 258 261 266 271 274 275 274 274 274 274 274 274 273 273 272 271 269 268 266 265 264 263 262 261 260 258 256 254 253 251 251
275 275 275 275 275 274 274 274 274 273 273 272 272 271 270 270 269 268 267 266 266 266 265 264 264 263 263 263 263 264 264 264 264 263 263 263 264 264 265 265 265 266 267 269 272 275 277 277 276 274 271 268 264 261 259 260 262 267 271 273 274 273 273 273 273 273 273 272 272 271 270 269 268 266 265 264 263 262 260 259 257 255 254 252 251 250
276 276 275 275 275 275 274 274 274 274 273 272 272 271 271 270 269 268 267 266 266 266 265 264 262 261 261 262 262 263 263 263 264 264 264 265 265 266 266 266 266 265 266 269 271 273 275 275 274 272 270 268 265 263 262 262 265 268 270 272 272 271 271 271 271 271 270 270 269 269 268 268 267 266 265 264 262 261 259 258 256 255 253 252 250 249
276 276 276 275 275 275 275 274 274 274 273 273 272 272 271 270 269 268 268 267 266 266 265 263 262 260 259 260 261 262 262 263 264 264 265 266 267 268 269 269 268 267 268 269 271 272 273 272 271 270 268 267 265 265 264 265 266 268 269 270 269 269 268 267 267 267 267 266 266 266 266 266 265 265 264 263 262 260 258 257 255 254 253 251 250 248
277 276 276 275 275 275 275 274 274 274 274 273 273 272 271 271 270 269 268 267 267 266 265 264 262 260 259 259 260 261 262 263 263 264 265 267 268 269 270 270 270 270 269 270 271 271 271 270 269 268 267 266 265 265 265 266 267 267 268 268 267 266 265 265 265 264 264 263 263 263 263 264 264 264 263 262 261 259 257 256 254 253 252 251 250 248
277 277 276 276 275 275 275 274 274 274 274 273 273 272 272 271 270 269 269 268 267 267 266 265 264 262 261 260 260 261 262 263 263 264 265 266 267 268 269 270 270 270 270 270 270 270 269 268 268 267 266 266 266 266 266 266 266 266 266 266 265 265 264 264 264 263 263 262 262 262 262 263 263 262 262 261 260 258 256 255 253 252 251 250 249 248
277 277 276 276 276 275 275 274 274 274 274 273 273 273 272 271 271 270 269 268 268 268 267 267 266 265 264 263 263 262 263 263 264 264 265 266 266 267 268 268 268 269 269 269 269 269 268 267 267 267 267 266 266 266 266 266 266 266 265 265 264 264 263 263 263 263 263 262 262 262 262 262 262 261 261 260 258 257 256 254 253 251 250 249 248 248
277 277 276 276 276 275 275 274 274 274 273 273 272 272 272 271 271 270 270 269 268 268 268 267 267 266 266 266 265 265 265 265 265 265 265 266 266 266 267 267 267 267 267 268 267 267 267 267 267 267 267 267 266 266 266 266 265 265 264 264 264 263 263 263 263 263 262 262 262 262 262 262 261 261 259 258 257 256 255 254 252 251 249 248 247 247
276 276 275 275 275 274 274 274 273 273 272 272 271 271 271 271 270 270 270 269 269 268 268 267 267 267 267 266 266 266 266 265 265 265 266 266 266 266 266 266 267 267 267 267 266 266 266 266 266 266 266 266 266 266 265 265 265 264 264 264 264 264 263 263 263 263 262 262 262 262 261 261 260 259 258 257 256 255 254 253 252 251 249 248 246 246
275 275 275 274 274 274 273 273 272 272 271 271 271 270 270 270 270 270 269 269 269 268 268 267 267 267 266 266 266 266 266 266 266 266 266 266 266 266 266 266 266 266 266 266 266 266 266 266 265 265 265 265 265 265 264 264 264 264 263 263 263 264 263 263 263 262 262 261 261 261 260 260 259 258 257 256 255 254 253 252 251 250 249 248 246 245
275 275 275 274 274 274 274 273 273 272 272 271 271 270 270 270 269 269 269 268 268 268 268 267 267 267 266 266 266 266 266 266 265 265 265 265 266 266 266 266 266 266 266 266 266 266 266 265 265 265 265 264 264 264 264 264 263 263 263 263 263 263 263 263 263 262 261 261 260 259 259 258 257 257 256 255 254 253 252 251 251 250 249 248 247 246
276 276 275 275 275 274 274 274 273 273 272 272 271 271 270 270 270 269 269 269 268 268 268 267 267 267 267 266 266 266 266 266 265 265 265 265 265 265 265 266 266 266 266 266 266 266 266 266 265 265 265 265 264 264 264 263 263 263 263 263 263 263 263 263 262 262 261 260 259 259 258 257 256 255 255 254 253 252 251 250 250 249 249 248 248 247
276 276 276 275 275 275 274 274 273 273 273 272 272 271 271 271 270 270 270 269 269 269 268 268 268 267 267 267 267 266 266 266 266 265 265 265 265 265 265 265 265 265 265 265 265 266 266 266 266 265 265 265 265 264 264 264 264 263 263 263 263 263 262 262 262 262 261 260 259 258 257 256 256 255 254 253 252 251 250 250 249 249 248 248 248 247
276 276 276 276 275 275 274 274 274 273 273 273 272 272 272 271 271 271 270 270 270 269 269 268 268 268 268 267 267 266 266 266 266 266 265 265 265 265 265 265 265 265 265 265 265 265 265 265 265 265 265 265 265 265 265 264 264 264 263 263 262 262 262 262 262 261 261 260 260 259 258 257 255 255 254 253 252 251 250 249 248 248 248 248 247 247
277 276 276 276 275 275 274 274 274 273 273 273 272 272 272 271 271 271 271 270 270 269 269 269 268 268 268 267 267 267 266 266 266 266 266 265 265 265 265 265 265 265 265 265 265 265 265 265 265 265 265 265 265 265 265 264 264 264 263 263 263 262 262 261 261 261 260 260 259 259 258 257 256 255 254 253 252 251 250 249 248 247 247 247 247 247
277 276 276 276 275 275 275 274 274 273 273 273 272 272 272 271 271 271 270 270 270 270 269 269 268 268 268 267 267 267 266 266 266 266 266 265 265 265 265 265 265 265 264 264 264 264 264 264 264 264 264 264 264 264 264 264 264 264 263 263 263 262 262 261 261 260 260 259 259 259 258 257 256 255 254 253 252 251 250 249 248 247 247 246 246 246
277 276 276 276 275 275 275 274 274 273 273 273 272 272 271 271 271 271 270 270 270 269 269 269 268 268 268 267 267 267 266 266 266 266 265 265 265 265 264 264 264 264 264 264 263 263 263 263 263 263 263 263 263 263 263 263 263 263 263 263 263 262 262 261 261 260 259 259 258 258 257 257 256 256 255 253 252 251 250 249 248 247 247 246 246 246
277 276 276 275 275 275 274 274 273 273 273 272 272 272 271 271 271 270 270 270 270 269 269 269 268 268 268 267 267 267 266 266 266 266 265 265 265 264 264 264 264 264 264 263 263 263 263 263 263 262 262 262 262 262 262 262 262 262 262 262 262 262 261 261 261 260 259 259 258 257 257 256 256 255 255 254 253 252 251 250 249 248 247 246 246 245
277 276 276 275 275 274 274 274 273 273 273 272 272 272 272 271 271 270 270 270 269 269 269 268 268 268 267 267 267 267 266 266 266 266 266 265 265 264 264 264 264 264 263 263 263 262 262 262 262 262 262 262 262 262 261 261 261 261 261 261 261 261 261 260 260 260 259 259 258 257 257 256 255 255 254 254 253 252 251 250 249 248 247 246 246 245
276 276 276 275 275 274 274 274 274 273 273 273 272 272 272 272 271 271 270 270 270 269 269 269 268 268 268 267 267 267 267 267 267 266 266 265 265 264 264 264 264 264 263 263 263 262 262 262 262 261 261 261 261 261 261 261 261 261 261 260 260 260 260 260 259 259 259 258 258 257 257 256 255 255 254 253 253 252 251 250 249 248 247 246 246 245
277 276 276 276 275 275 275 275 274 274 274 274 273 273 273 272 272 272 271 271 271 271 270 270 270 269 269 268 268 268 268 268 267 267 267 266 266 265 265 265 264 264 264 264 263 263 263 262 262 262 262 262 261 261 261 261 261 260 260 260 260 260 259 259 259 258 258 258 257 257 257 256 255 255 254 253 252 252 251 250 249 248 247 247 246 245
277 277 277 276 276 276 276 275 275 275 275 274 274 274 274 273 273 273 273 272 272 272 271 271 271 270 270 270 270 269 269 269 269 268 268 268 267 267 266 266 265 265 265 264 264 264 263 263 263 263 263 262 262 262 262 261 261 261 260 260 260 259 259 259 258 258 258 257 257 257 256 256 255 255 254 253 253 252 251 250 249 248 248 247 246 245
278 277 277 277 277 277 276 276 276 276 275 275 275 275 274 274 274 274 274 273 273 273 273 272 272 272 271 271 271 271 270 270 270 270 270 269 269 269 268 267 267 266 266 266 265 265 264 264 264 264 263 263 263 263 263 262 262 262 261 261 260 260 259 259 259 258 258 257 257 256 256 256 255 255 254 254 253 252 251 250 249 248 248 247 246 245
278 278 278 277 277 277 277 277 276 276 276 276 276 276 275 275 275 275 275 274 274 274 274 274 273 273 273 273 272 272 272 272 272 271 271 271 271 270 269 269 268 268 268 267 266 266 265 265 265 264 264 264 264 263 263 263 263 263 262 262 261 261 260 260 259 259 258 258 257 257 256 256 255 255 255 254 253 253 252 251 250 249 248 247 246 245
279 279 278 278 278 278 278 277 277 277 277 277 277 277 277 277 277 276 276 276 275 276 275 275 275 275 274 274 274 273 273 273 273 273 272 273 272 272 270 270 270 269 269 268 268 267 266 266 265 265 265 264 264 264 264 263 263 263 263 262 262 262 261 261 260 260 259 259 258 258 257 257 256 256 255 254 254 253 252 252 251 250 249 247 246 245
280 280 280 280 279 279 279 279 279 279 279 279 278 278 278 278 278 278 277 277 277 277 277 276 276 276 276 276 275 275 275 275 274 274 274 274 273 273 272 271 271 271 270 269 269 268 268 267 266 266 266 265 265 264 264 264 263 263 263 263 262 262 262 261 261 260 260 259 259 258 258 257 257 256 256 255 255 254 253 252 252 251 250 249 247 246
281 281 281 281 281 281 281 281 281 281 280 280 280 280 280 280 279 279 279 279 278 278 278 278 277 277 277 277 277 276 276 275 275 275 275 274 274 273 273 273 272 272 271 270 270 269 269 268 267 267 266 266 266 265 265 264 264 264 263 263 263 262 262 262 261 261 260 260 259 259 258 258 257 257 256 256 255 254 254 253 252 252 251 250 249 247
283 283 283 283 283 283 283 283 282 282 282 282 282 282 281 281 281 281 280 280 280 279 279 279 278 278 278 278 277 277 276 276 275 275 275 275 274 274 273 273 273 272 272 271 271 270 270 269 268 268 267 267 266 266 266 265 265 264 264 263 263 262 262 262 261 261 260 260 259 259 258 258 257 257 256 256 255 255 254 253 253 252 251 251 250 248
285 285 285 285 285 285 285 284 284 284 284 283 283 283 283 282 282 282 282 281 281 281 280 280 280 279 279 279 279 278 277 277 276 276 276 275 274 274 274 274 273 273 272 272 272 271 270 270 269 268 268 267 267 266 266 266 265 265 264 264 263 263 262 262 261 261 260 260 259 259 258 257 257 256 256 255 255 254 254 253 253 252 252 251 250 249
288 287 287 287 287 287 286 286 286 286 285 285 285 284 284 284 284 284 283 283 283 283 283 282 282 281 281 281 280 280 279 278 278 277 277 277 276 275 274 274 274 273 273 272 272 272 271 270 270 269 269 268 267 267 266 266 266 265 264 264 263 263 262 262 261 261 260 260 259 258 258 257 257 256 256 255 255 254 254 253 253 252 252 251 251 250
291 291 290 290 290 290 289 289 289 289 288 288 288 287 287 287 287 287 286 286 286 286 286 285 285 284 284 283 283 282 281 280 280 280 280 279 278 277 276 276 276 275 274 274 273 273 272 272 271 270 270 269 268 268 267 266 266 265 265 264 263 263 262 262 261 261 260 260 259 258 258 257 257 256 256 255 254 254 253 253 252 252 252 251 251 250
295 295 295 295 295 294 294 294 293 293 293 293 292 292 292 292 291 291 291 291 291 290 290 290 289 289 288 288 287 286 284 283 284 284 285 283 282 281 280 280 279 278 278 277 276 275 274 273 272 272 271 270 269 268 268 267 266 266 265 265 264 263 262 262 261 261 260 259 259 259 258 257 257 256 256 255 255 254 253 253 252 252 251 251 250 250
302 302 302 302 302 301 301 300 300 300 299 299 298 298 298 298 297 297 296 296 296 296 295 295 295 295 294 294 293 291 289 289 290 290 290 289 288 287 286 285 283 283 282 281 279 278 277 276 275 274 273 272 271 269 268 267 267 266 266 265 264 264 263 262 261 261 260 259 259 258 258 257 257 256 256 255 255 254 253 253 252 252 251 251 250 250
310 309 309 308 308 308 307 307 306 306 306 305 305 304 304 304 303 302 302 301 301 301 300 300 301 301 300 300 299 298 296 296 296 296 296 295 295 294 292 290 288 287 286 284 282 281 280 279 278 276 275 274 272 270 269 268 268 267 266 265 264 264 263 263 262 261 261 260 259 258 258 257 257 256 256 255 255 254 253 253 252 252 251 250 250 249
313 313 312 312 311 311 311 310 310 309 309 309 308 308 308 307 307 306 305 304 304 304 304 303 303 303 303 303 302 301 301 300 300 300 299 299 298 297 295 293 291 290 288 287 285 284 283 281 280 278 276 275 273 272 271 269 268 267 266 266 265 265 265 264 263 262 262 261 260 259 258 258 257 256 255 255 254 254 253 253 252 252 251 250 249 249
312 312 311 311 310 310 310 309 309 309 309 309 308 308 307 307 306 306 305 304 303 303 303 302 302 302 301 301 301 301 301 301 301 301 301 300 299 298 296 294 292 290 288 287 286 285 283 282 281 279 278 276 275 273 272 271 270 269 268 267 267 266 265 265 264 264 263 262 261 260 259 258 257 256 256 255 254 254 253 253 252 252 251 250 249 249
309 309 308 308 307 307 307 306 306 306 306 305 305 304 304 303 303 302 302 301 300 300 299 299 299 299 298 299 299 300 300 301 302 302 302 301 300 298 296 294 292 290 288 287 285 284 283 283 282 281 280 278 277 275 274 273 272 271 270 269 268 266 266 266 266 265 264 264 263 262 260 259 259 258 256 256 255 254 253 253 252 251 251 250 250 249
306 305 304 304 304 303 303 303 302 302 302 301 301 300 300 299 299 298 298 297 296 296 295 295 296 296 297 298 299 300 301 302 303 303 303 302 301 299 297 294 292 290 288 287 285 284 284 283 282 281 280 279 278 277 276 275 273 272 271 270 268 267 267 267 267 266 265 265 264 263 262 261 260 259 258 257 256 255 254 253 252 252 251 250 250 249
304 303 302 302 301 300 300 299 299 299 298 298 298 297 297 297 296 296 295 294 293 293 293 293 294 295 296 298 299 301 302 303 304 304 304 303 302 300 299 297 295 294 292 290 288 287 285 284 283 282 280 280 279 278 276 275 274 273 272 270 269 268 267 267 266 266 266 265 265 264 264 263 262 261 260 259 258 257 256 255 253 252 251 251 250 249
304 303 302 301 300 299 298 298 297 297 296 296 296 295 295 295 295 294 293 292 292 291 292 292 294 295 297 299 301 303 305 306 306 306 306 305 304 304 303 303 302 301 299 297 295 293 291 289 287 285 283 282 281 279 277 276 274 273 272 271 270 268 267 266 266 266 266 266 265 264 264 263 262 261 261 260 259 259 258 256 255 254 252 251 250 250
308 306 305 304 302 301 300 299 298 297 296 295 295 295 295 295 294 294 293 292 292 292 292 294 296 298 300 302 304 306 307 308 308 308 308 309 309 310 310 310 309 308 307 305 302 300 298 296 294 291 290 288 286 283 281 279 277 274 273 272 271 269 267 266 266 266 266 266 265 264 263 262 261 261 260 260 260 259 259 257 256 255 254 252 251 250
312 310 309 308 306 305 303 302 301 299 298 297 296 296 295 295 295 295 294 293 293 294 295 297 299 302 304 306 308 309 310 311 311 312 312 313 314 315 315 314 313 311 310 308 306 304 302 300 298 297 295 292 290 288 285 283 280 277 275 274 272 270 268 267 266 266 265 265 265 264 263 262 261 260 260 259 259 258 258 258 257 256 255 253 252 250
315 314 313 312 310 309 307 306 304 303 301 300 299 298 298 297 297 296 296 296 296 297 299 302 304 307 309 310 311 313 313 314 314 314 314 314 314 314 314 313 311 310 309 307 306 304 302 300 299 297 295 293 291 289 286 284 282 279 277 274 272 271 269 268 267 266 265 265 265 264 264 263 262 260 259 258 257 257 257 257 256 256 255 254 253 251
318 317 316 315 313 312 310 309 307 306 304 303 302 301 301 300 300 299 299 299 300 302 304 307 309 311 313 314 315 316 317 317 316 316 315 314 313 312 311 310 309 308 307 306 305 303 302 300 299 297 295 292 290 288 285 283 280 278 276 274 272 270 268 267 266 265 264 264 264 264 264 263 262 261 259 257 256 256 255 255 255 255 254 253 252 251
321 320 318 317 316 314 313 312 310 309 307 306 305 304 303 303 302 302 302 303 305 307 310 312 314 315 317 318 319 320 320 319 318 317 316 314 313 312 311 310 310 309 308 307 306 305 304 302 301 299 297 294 292 289 286 283 280 278 275 274 272 270 268 266 265 264 264 263 263 263 263 263 262 261 260 258 256 255 254 254 253 253 253 252 251 250
323 322 321 319 318 317 315 314 312 311 310 308 307 306 306 305 305 305 306 307 309 311 313 315 317 319 321 322 323 324 323 322 321 319 318 317 315 314 313 312 311 311 310 309 309 308 306 305 303 302 300 298 296 293 290 287 283 281 278 276 274 271 269 267 266 264 263 263 263 263 263 263 262 261 260 258 256 254 253 252 252 252 252 251 250 249
325 324 323 322 320 319 317 316 314 313 312 310 309 308 307 307 307 307 308 310 312 314 316 317 319 322 324 326 327 327 326 325 324 322 321 319 318 316 314 313 311 310 309 309 308 307 306 305 304 303 302 301 298 296 293 291 288 285 282 280 277 275 273 270 268 266 264 263 263 263 263 262 262 261 260 258 256 254 252 251 250 250 250 250 249 248
Height
5650 5648 5648 5647 5646 5645 5644 5643 5642 5642 5641 5640 5640 5640 5639 5639 5639 5638 5638 5638 5638 5637 5637 5637 5636 5637 5637 5636 5636 5635 5635 5635 5635 5634 5634 5634 5634 5634 5634 5634 5633 5631 5630 5630 5630 5631 5631 5632 5633 5634 5634 5635 5635 5636 5636 5638 5638 5639 5640 5640 5640 5640 5640 5640 5640 5640 5640 5641 5641 5642 5642 5643 5644 5645 5645 5645 5646 5646 5646 5647 5648 5649 5649 5650 5651 5651
5645 5643 5642 5641 5641 5640 5638 5637 5636 5636 5635 5635 5634 5634 5633 5633 5632 5632 5632 5632 5631 5631 5631 5631 5631 5630 5630 5630 5630 5630 5629 5629 5629 5629 5629 5629 5628 5628 5627 5626 5625 5623 5623 5623 5624 5624 5625 5626 5627 5628 5629 5629 5630 5630 5631 5632 5633 5634 5634 5635 5635 5635 5635 5635 5635 5635 5636 5636 5636 5636 5637 5638 5639 5640 5641 5641 5641 5641 5641 5642 5643 5644 5645 5646 5646 5647
5639 5638 5637 5636 5636 5635 5633 5631 5631 5630 5630 5629 5628 5628 5627 5627 5626 5626 5626 5626 5625 5625 5625 5625 5625 5624 5624 5624 5624 5624 5623 5623 5623 5624 5623 5623 5622 5621 5620 5619 5617 5616 5616 5616 5617 5617 5618 5619 5620 5621 5622 5623 5624 5624 5625 5626 5627 5628 5628 5629 5630 5630 5630 5630 5630 5630 5630 5631 5631 5631 5632 5633 5634 5635 5635 5636 5636 5636 5636 5637 5638 5639 5640 5641 5642 5643
5634 5633 5631 5631 5630 5629 5627 5626 5625 5625 5624 5623 5622 5622 5621 5621 5620 5620 5620 5619 5619 5618 5618 5618 5618 5618 5618 5618 5618 5618 5617 5617 5617 5616 5616 5615 5615 5614 5613 5612 5611 5610 5610 5610 5610 5611 5612 5613 5614 5615 5616 5616 5617 5618 5619 5620 5621 5621 5622 5623 5623 5624 5625 5625 5625 5625 5625 5625 5626 5626 5626 5627 5628 5629 5630 5630 5631 5631 5631 5632 5633 5634 5635 5636 5637 5638
5627 5626 5625 5625 5625 5623 5621 5620 5619 5619 5618 5617 5616 5616 5616 5615 5614 5613 5613 5613 5612 5612 5612 5612 5612 5612 5612 5611 5611 5611 5611 5610 5609 5609 5608 5608 5607 5607 5606 5606 5605 5604 5604 5604 5605 5606 5606 5606 5607 5608 5609 5610 5611 5611 5612 5613 5614 5615 5616 5616 5617 5618 5619 5619 5620 5620 5620 5620 5620 5620 5621 5621 5622 5623 5624 5625 5625 5626 5626 5627 5628 5629 5630 5631 5632 5633
5621 5620 5619 5618 5618 5616 5615 5614 5613 5612 5611 5611 5610 5610 5609 5608 5608 5607 5607 5606 5606 5605 5605 5605 5605 5605 5605 5605 5604 5604 5604 5603 5602 5602 5601 5601 5601 5600 5600 5599 5599 5598 5598 5599 5600 5600 5600 5601 5601 5602 5603 5603 5604 5605 5606 5606 5607 5608 5609 5610 5611 5611 5612 5613 5614 5614 5615 5615 5615 5615 5615 5616 5616 5617 5618 5619 5620 5621 5621 5622 5623 5624 5625 5626 5627 5629
5615 5614 5612 5612 5611 5609 5609 5607 5606 5605 5605 5604 5604 5603 5602 5601 5601 5600 5600 5599 5599 5598 5598 5598 5598 5598 5598 5598 5598 5597 5597 5596 5596 5596 5595 5594 5594 5593 5593 5593 5593 5593 5593 5594 5594 5594 5595 5595 5596 5596 5597 5597 5598 5599 5600 5600 5601 5602 5603 5604 5605 5605 5606 5606 5607 5608 5609 5609 5609 5610 5610 5610 5611 5612 5613 5614 5615 5616 5617 5617 5618 5619 5620 5621 5622 5624
5608 5607 5606 5605 5604 5603 5602 5601 5599 5598 5598 5597 5596 5596 5596 5595 5594 5593 5592 5592 5592 5592 5592 5592 5592 5591 5592 5591 5591 5590 5590 5590 5589 5589 5588 5587 5587 5586 5586 5586 5586 5587 5587 5588 5588 5588 5589 5590 5590 5590 5591 5591 5592 5592 5593 5594 5595 5596 5597 5598 5598 5599 5600 5601 5601 5602 5602 5603 5604 5604 5605 5605 5606 5606 5607 5608 5610 5611 5612 5613 5613 5614 5615 5616 5617 5619
5601 5600 5599 5598 5597 5596 5595 5594 5592 5591 5591 5590 5589 5589 5589 5588 5587 5586 5586 5586 5585 5585 5585 5585 5585 5584 5584 5584 5584 5583 5583 5582 5582 5582 5581 5581 5580 5580 5580 5580 5580 5581 5581 5581 5581 5582 5583 5583 5584 5584 5584 5585 5585 5586 5587 5588 5589 5589 5590 5591 5592 5593 5594 5594 5595 5595 5596 5597 5597 5598 5599 5599 5600 5601 5602 5603 5604 5605 5606 5608 5608 5609 5610 5611 5612 5614
5593 5592 5592 5591 5590 5590 5589 5587 5586 5585 5585 5584 5582 5581 5581 5581 5581 5580 5580 5580 5579 5578 5578 5578 5578 5578 5578 5577 5577 5576 5576 5576 5576 5575 5575 5575 5574 5574 5574 5574 5574 5574 5574 5575 5575 5575 5576 5576 5577 5577 5578 5578 5579 5579 5580 5581 5582 5583 5583 5584 5585 5586 5586 5587 5588 5589 5590 5590 5591 5592 5593 5593 5594 5595 5596 5597 5598 5600 5601 5602 5603 5604 5605 5606 5607 5609
5586 5586 5585 5584 5583 5583 5582 5581 5579 5578 5578 5577 5576 5575 5574 5574 5574 5574 5573 5573 5573 5573 5572 5571 5571 5571 5571 5571 5571 5570 5570 5569 5569 5569 5569 5568 5568 5568 5567 5567 5567 5567 5568 5568 5568 5569 5569 5570 5570 5571 5571 5571 5572 5572 5573 5574 5575 5576 5576 5577 5578 5579 5580 5580 5581 5582 5583 5584 5585 5586 5586 5587 5589 5590 5591 5591 5593 5594 5595 5596 5598 5599 5600 5601 5602 5604
5580 5579 5579 5578 5577 5576 5576 5575 5573 5572 5572 5571 5570 5569 5568 5567 5567 5567 5567 5566 5566 5567 5566 5565 5565 5565 5565 5564 5564 5563 5563 5563 5562 5562 5562 5561 5561 5561 5561 5561 5561 5561 5561 5562 5562 5562 5563 5563 5563 5564 5564 5565 5565 5566 5566 5567 5567 5568 5569 5570 5571 5571 5572 5573 5574 5575 5576 5577 5578 5579 5580 5581 5582 5584 5585 5586 5587 5588 5589 5591 5592 5593 5595 5596 5597 5599
5574 5573 5573 5572 5571 5570 5569 5568 5568 5567 5566 5565 5564 5562 5561 5561 5561 5561 5560 5559 5559 5560 5560 5559 5559 5558 5558 5557 5557 5556 5556 5556 5555 5555 5555 5555 5554 5554 5554 5554 5554 5554 5555 5555 5556 5556 5556 5556 5556 5557 5557 5557 5558 5558 5559 5559 5560 5561 5562 5563 5564 5565 5566 5567 5568 5569 5570 5571 5572 5573 5574 5575 5576 5577 5579 5580 5581 5582 5583 5585 5586 5588 5589 5591 5592 5593
5568 5568 5567 5566 5565 5564 5564 5563 5562 5561 5560 5559 5558 5556 5555 5554 5554 5554 5553 5552 5552 5552 5553 5552 5551 5551 5551 5551 5550 5549 5549 5548 5548 5548 5548 5548 5547 5547 5547 5547 5547 5547 5548 5548 5548 5549 5549 5549 5549 5550 5550 5551 5551 5551 5551 5552 5553 5554 5555 5556 5556 5558 5559 5560 5561 5562 5563 5564 5566 5566 5568 5569 5570 5571 5572 5574 5575 5576 5577 5579 5580 5581 5583 5585 5586 5588
5563 5562 5561 5560 5559 5558 5557 5556 5555 5554 5553 5552 5551 5550 5548 5547 5547 5546 5546 5545 5545 5545 5545 5545 5544 5544 5545 5544 5543 5542 5541 5541 5541 5541 5541 5541 5541 5541 5541 5540 5540 5540 5541 5541 5541 5541 5542 5542 5541 5541 5542 5543 5543 5543 5544 5545 5546 5546 5547 5548 5550 5551 5552 5553 5554 5555 5556 5558 5559 5560 5561 5562 5563 5565 5566 5567 5569 5570 5571 5573 5574 5576 5577 5579 5581 5582
5557 5556 5555 5554 5553 5552 5551 5549 5548 5546 5545 5544 5543 5542 5541 5540 5539 5539 5539 5538 5537 5537 5537 5537 5536 5537 5537 5537 5536 5535 5534 5533 5533 5534 5535 5535 5534 5534 5534 5533 5533 5533 5534 5535 5534 5534 5534 5534 5534 5534 5534 5535 5535 5536 5537 5537 5538 5539 5541 5541 5542 5543 5544 5546 5547 5548 5549 5551 5552 5553 5555 5556 5557 5558 5560 5561 5562 5564 5565 5566 5568 5569 5571 5573 5574 5576
5551 5550 5548 5547 5546 5545 5543 5542 5541 5539 5537 5536 5536 5535 5534 5533 5532 5531 5531 5530 5530 5530 5530 5529 5529 5529 5530 5530 5529 5528 5526 5526 5525 5526 5527 5528 5527 5527 5527 5527 5526 5526 5527 5528 5527 5526 5526 5526 5526 5526 5526 5526 5527 5528 5529 5530 5531 5532 5533 5534 5535 5536 5537 5538 5539 5541 5542 5543 5545 5546 5548 5549 5551 5552 5553 5554 5556 5557 5559 5560 5561 5563 5565 5566 5568 5570
5544 5543 5541 5540 5538 5537 5536 5535 5533 5532 5530 5529 5528 5527 5527 5526 5525 5524 5523 5522 5522 5522 5521 5521 5521 5521 5521 5522 5521 5520 5519 5518 5517 5517 5519 5520 5520 5520 5520 5519 5519 5518 5519 5520 5520 5519 5518 5518 5518 5518 5518 5519 5519 5520 5520 5521 5522 5524 5525 5526 5527 5528 5529 5530 5531 5532 5534 5535 5537 5539 5540 5542 5543 5545 5546 5548 5549 5551 5552 5554 5555 5557 5558 5560 5561 5563
5537 5536 5534 5532 5531 5530 5529 5527 5526 5524 5522 5521 5520 5520 5519 5517 5517 5516 5516 5514 5514 5513 5513 5513 5513 5513 5513 5513 5512 5511 5511 5511 5509 5508 5510 5511 5512 5512 5512 5511 5511 5510 5511 5511 5512 5511 5510 5510 5510 5510 5511 5511 5511 5511 5512 5513 5514 5515 5516 5517 5518 5519 5521 5522 5523 5524 5526 5527 5529 5531 5532 5534 5536 5537 5539 5540 5542 5543 5545 5547 5548 5550 5551 5553 5555 5557
5530 5528 5527 5525 5524 5522 5521 5520 5518 5516 5515 5513 5512 5511 5511 5509 5508 5508 5507 5506 5505 5505 5505 5504 5504 5504 5504 5505 5504 5502 5501 5501 5501 5500 5500 5502 5504 5504 5503 5503 5502 5501 5501 5503 5503 5503 5502 5501 5501 5502 5502 5503 5503 5503 5504 5504 5505 5506 5507 5508 5509 5510 5511 5513 5514 5516 5517 5519 5520 5522 5524 5526 5527 5529 5531 5532 5534 5536 5538 5539 5541 5543 5545 5546 5548 5550
5522 5521 5519 5518 5516 5514 5512 5511 5510 5508 5506 5504 5503 5503 5501 5500 5500 5499 5498 5497 5496 5496 5496 5496 5495 5495 5495 5496 5495 5493 5492 5492 5492 5491 5491 5493 5495 5496 5495 5494 5493 5492 5492 5494 5494 5494 5493 5492 5492 5493 5494 5494 5494 5495 5495 5496 5497 5497 5498 5499 5500 5501 5502 5504 5505 5506 5508 5510 5511 5513 5515 5517 5518 5520 5522 5524 5526 5528 5530 5532 5534 5535 5537 5539 5541 5543
5515 5513 5511 5510 5508 5506 5504 5502 5501 5499 5497 5496 5495 5493 5492 5491 5491 5490 5489 5488 5488 5487 5486 5486 5486 5486 5486 5486 5486 5483 5482 5482 5482 5482 5481 5483 5485 5486 5485 5484 5484 5483 5483 5484 5485 5485 5484 5484 5483 5484 5485 5485 5486 5486 5486 5487 5488 5489 5490 5490 5491 5492 5493 5494 5495 5497 5498 5500 5502 5504 5506 5508 5509 5511 5513 5515 5517 5519 5521 5524 5526 5527 5530 5531 5533 5535
5506 5505 5502 5501 5499 5497 5495 5493 5491 5490 5488 5487 5486 5484 5482 5482 5482 5481 5480 5479 5479 5478 5477 5476 5476 5476 5476 5476 5475 5474 5473 5472 5472 5472 5472 5473 5474 5475 5475 5475 5475 5473 5472 5473 5475 5475 5475 5474 5474 5475 5476 5476 5476 5476 5477 5478 5479 5480 5480 5481 5482 5483 5483 5485 5486 5487 5489 5490 5492 5494 5496 5498 5500 5502 5504 5506 5508 5511 5513 5515 5517 5519 5521 5523 5525 5527
5497 5495 5493 5491 5490 5488 5486 5484 5482 5481 5479 5477 5476 5474 5472 5472 5471 5470 5469 5469 5468 5468 5466 5466 5466 5466 5466 5466 5466 5465 5464 5462 5462 5462 5462 5462 5462 5463 5464 5465 5464 5463 5462 5462 5464 5465 5465 5465 5465 5465 5466 5467 5467 5467 5468 5469 5470 5470 5471 5471 5472 5473 5474 5475 5476 5477 5478 5480 5482 5484 5486 5488 5490 5492 5494 5496 5499 5501 5504 5506 5508 5511 5513 5515 5517 5519
5488 5486 5483 5481 5480 5478 5476 5474 5473 5471 5469 5468 5466 5464 5462 5461 5460 5459 5459 5458 5457 5456 5456 5455 5456 5456 5455 5455 5456 5456 5455 5451 5451 5451 5451 5450 5449 5451 5454 5454 5454 5452 5452 5451 5452 5454 5455 5455 5454 5455 5456 5457 5457 5457 5458 5459 5460 5460 5461 5461 5462 5462 5463 5464 5465 5467 5468 5470 5471 5473 5475 5477 5479 5482 5484 5486 5489 5492 5494 5497 5499 5501 5504 5506 5508 5511
5478 5476 5474 5472 5470 5468 5466 5464 5462 5460 5458 5456 5455 5452 5451 5450 5449 5449 5449 5448 5446 5445 5445 5445 5444 5444 5443 5444 5446 5446 5444 5441 5440 5441 5440 5437 5437 5440 5442 5442 5441 5441 5441 5440 5441 5443 5445 5444 5444 5444 5446 5447 5447 5447 5448 5449 5449 5450 5450 5451 5451 5451 5452 5453 5454 5456 5457 5459 5461 5463 5465 5466 5469 5471 5473 5476 5479 5482 5484 5487 5489 5491 5494 5496 5499 5502
5468 5466 5464 5462 5460 5458 5456 5454 5452 5450 5448 5446 5444 5441 5439 5438 5438 5438 5438 5436 5435 5434 5435 5434 5432 5431 5432 5433 5434 5434 5432 5431 5430 5429 5426 5425 5426 5428 5429 5428 5428 5430 5430 5428 5428 5430 5433 5434 5434 5434 5435 5436 5437 5436 5437 5438 5438 5438 5438 5439 5439 5440 5441 5441 5443 5444 5446 5448 5450 5451 5454 5456 5458 5460 5463 5466 5468 5471 5474 5476 5479 5481 5484 5487 5490 5493
5458 5456 5454 5452 5450 5448 5446 5444 5442 5440 5437 5435 5433 5431 5428 5427 5427 5428 5426 5424 5422 5423 5425 5423 5420 5419 5421 5422 5422 5421 5421 5421 5419 5416 5412 5412 5415 5416 5415 5412 5415 5418 5419 5416 5415 5417 5421 5423 5423 5422 5423 5425 5426 5426 5426 5426 5426 5426 5426 5426 5426 5427 5428 5429 5431 5433 5435 5436 5438 5440 5442 5444 5446 5449 5451 5454 5457 5460 5463 5465 5468 5471 5473 5476 5480 5483
5448 5446 5444 5442 5439 5437 5435 5433 5431 5429 5427 5425 5423 5420 5418 5416 5416 5417 5415 5411 5411 5412 5414 5411 5408 5408 5410 5410 5409 5409 5410 5410 5407 5402 5398 5400 5403 5403 5399 5398 5402 5406 5405 5401 5401 5404 5408 5410 5410 5410 5411 5413 5413 5413 5414 5414 5414 5414 5414 5414 5414 5414 5415 5417 5419 5421 5422 5424 5426 5428 5430 5432 5435 5437 5440 5443 5446 5448 5451 5454 5456 5459 5461 5465 5469 5472
5438 5436 5434 5431 5428 5426 5424 5422 5421 5418 5416 5415 5412 5410 5407 5405 5405 5405 5403 5400 5399 5401 5401 5399 5397 5396 5397 5397 5397 5398 5399 5397 5393 5388 5386 5389 5391 5388 5383 5384 5390 5393 5389 5385 5387 5391 5395 5395 5395 5397 5400 5400 5400 5400 5401 5402 5402 5401 5401 5401 5401 5401 5402 5404 5406 5408 5410 5411 5413 5416 5418 5420 5423 5425 5428 5431 5433 5436 5439 5441 5444 5446 5450 5453 5457 5461
5428 5426 5423 5421 5418 5415 5413 5412 5410 5407 5406 5404 5401 5399 5397 5395 5393 5392 5391 5389 5388 5389 5389 5387 5386 5385 5385 5385 5386 5387 5387 5384 5378 5375 5374 5377 5378 5374 5368 5371 5377 5379 5374 5369 5372 5378 5381 5380 5380 5383 5387 5387 5386 5385 5386 5388 5389 5388 5388 5387 5388 5389 5390 5391 5392 5394 5396 5398 5400 5402 5405 5407 5410 5412 5415 5418 5421 5423 5426 5429 5431 5434 5437 5441 5446 5450
5419 5416 5414 5411 5408 5406 5404 5401 5399 5397 5395 5393 5391 5389 5386 5384 5383 5381 5380 5378 5377 5377 5377 5376 5376 5374 5373 5373 5374 5376 5375 5371 5366 5363 5363 5366 5366 5362 5356 5358 5364 5366 5361 5355 5357 5363 5368 5366 5366 5368 5372 5374 5374 5372 5371 5373 5375 5375 5374 5373 5374 5376 5376 5377 5378 5380 5382 5384 5386 5388 5391 5394 5396 5399 5401 5404 5407 5410 5413 5416 5418 5421 5424 5428 5433 5437
5410 5407 5405 5402 5399 5397 5395 5392 5390 5388 5386 5384 5381 5379 5377 5375 5373 5372 5370 5369 5367 5366 5366 5366 5365 5364 5363 5362 5363 5364 5363 5360 5356 5353 5351 5353 5355 5352 5348 5347 5351 5353 5350 5345 5345 5348 5352 5353 5353 5353 5356 5360 5361 5359 5358 5359 5360 5360 5359 5359 5360 5361 5362 5362 5363 5365 5368 5369 5371 5373 5376 5379 5381 5384 5387 5390 5393 5396 5399 5402 5405 5408 5411 5415 5420 5424
5402 5399 5396 5394 5392 5390 5387 5385 5382 5380 5378 5376 5374 5371 5370 5368 5366 5364 5362 5361 5359 5358 5357 5357 5356 5356 5355 5354 5354 5354 5353 5351 5347 5343 5341 5342 5344 5343 5340 5339 5340 5341 5340 5337 5336 5336 5338 5341 5341 5342 5343 5346 5347 5347 5346 5346 5346 5345 5344 5344 5346 5347 5348 5347 5348 5350 5352 5353 5355 5357 5361 5363 5366 5368 5371 5375 5378 5381 5385 5388 5391 5394 5398 5402 5406 5411
5395 5392 5390 5387 5386 5383 5381 5378 5376 5374 5372 5370 5367 5365 5363 5362 5360 5358 5356 5355 5353 5351 5351 5350 5350 5349 5348 5347 5346 5346 5345 5342 5338 5335 5334 5335 5335 5334 5332 5332 5332 5332 5331 5330 5328 5328 5328 5330 5331 5331 5332 5334 5336 5336 5335 5334 5333 5332 5331 5331 5333 5334 5334 5334 5334 5336 5337 5338 5340 5342 5345 5348 5350 5353 5356 5360 5363 5366 5370 5374 5377 5381 5385 5389 5393 5398
5390 5387 5384 5382 5380 5378 5376 5373 5371 5369 5367 5365 5362 5360 5359 5357 5355 5353 5351 5350 5348 5347 5346 5344 5343 5342 5342 5341 5341 5340 5338 5336 5332 5331 5330 5329 5328 5327 5327 5327 5326 5324 5323 5323 5322 5320 5320 5321 5323 5323 5323 5325 5327 5327 5325 5323 5322 5322 5322 5321 5321 5321 5322 5322 5322 5322 5324 5325 5327 5328 5331 5333 5335 5338 5341 5345 5348 5351 5355 5359 5363 5367 5371 5375 5380 5384
5386 5383 5380 5378 5376 5374 5372 5370 5367 5365 5363 5361 5359 5356 5355 5353 5352 5350 5348 5346 5345 5343 5342 5341 5339 5338 5337 5336 5335 5335 5333 5331 5329 5327 5325 5324 5322 5322 5322 5321 5320 5318 5317 5317 5316 5314 5313 5314 5316 5316 5316 5316 5317 5318 5316 5314 5313 5313 5314 5312 5311 5310 5311 5312 5311 5311 5311 5313 5315 5316 5317 5319 5322 5325 5327 5330 5332 5336 5340 5344 5348 5352 5356 5361 5366 5370
5382 5380 5377 5375 5373 5371 5369 5367 5364 5362 5360 5358 5356 5354 5352 5351 5349 5347 5345 5343 5341 5340 5339 5337 5336 5335 5333 5332 5331 5329 5328 5327 5325 5323 5321 5320 5318 5318 5317 5316 5315 5313 5312 5311 5310 5308 5307 5308 5309 5310 5309 5309 5309 5309 5308 5307 5306 5306 5306 5304 5302 5302 5303 5303 5302 5301 5301 5303 5305 5306 5306 5308 5310 5312 5314 5316 5318 5321 5325 5330 5333 5337 5341 5346 5351 5355
5380 5377 5375 5372 5371 5369 5366 5364 5362 5360 5358 5356 5354 5352 5350 5348 5346 5345 5343 5341 5339 5338 5336 5335 5334 5332 5330 5328 5326 5325 5324 5322 5321 5319 5318 5316 5314 5313 5312 5312 5310 5308 5306 5305 5304 5303 5302 5302 5302 5302 5302 5302 5302 5301 5301 5301 5300 5299 5298 5297 5296 5297 5297 5295 5294 5293 5294 5295 5296 5296 5297 5298 5299 5301 5303 5305 5306 5309 5313 5316 5319 5322 5326 5331 5335 5340
5377 5375 5372 5370 5368 5366 5364 5362 5360 5357 5356 5353 5351 5350 5348 5346 5345 5342 5341 5339 5337 5336 5334 5333 5331 5329 5327 5325 5323 5321 5320 5318 5317 5316 5314 5312 5310 5309 5307 5306 5305 5303 5301 5300 5299 5298 5297 5296 5296 5295 5296 5296 5295 5295 5295 5295 5294 5293 5292 5292 5292 5292 5290 5288 5287 5287 5287 5287 5288 5288 5289 5290 5290 5292 5294 5295 5296 5299 5301 5304 5307 5310 5313 5316 5321 5325
5375 5372 5370 5368 5365 5363 5361 5359 5357 5355 5353 5351 5349 5347 5346 5344 5342 5341 5338 5336 5335 5333 5331 5330 5329 5327 5324 5322 5320 5318 5316 5315 5313 5311 5309 5308 5306 5304 5303 5301 5300 5298 5297 5296 5294 5293 5292 5291 5290 5289 5289 5289 5289 5289 5289 5289 5289 5287 5287 5287 5286 5286 5284 5284 5283 5282 5281 5281 5281 5282 5282 5283 5283 5284 5286 5287 5288 5290 5292 5294 5297 5299 5301 5304 5308 5312
5372 5370 5367 5365 5363 5360 5358 5356 5354 5352 5350 5348 5346 5345 5343 5342 5340 5339 5336 5335 5333 5331 5329 5328 5326 5324 5322 5319 5317 5315 5313 5311 5309 5307 5305 5303 5301 5300 5298 5296 5294 5293 5292 5291 5290 5288 5287 5286 5286 5285 5284 5283 5283 5284 5284 5284 5283 5282 5281 5281 5281 5280 5281 5280 5279 5277 5276 5276 5276 5276 5277 5277 5277 5278 5279 5280 5281 5283 5284 5286 5289 5291 5292 5294 5297 5300
5369 5367 5364 5362 5360 5357 5355 5353 5351 5349 5347 5346 5344 5342 5340 5339 5337 5336 5334 5332 5331 5328 5326 5325 5323 5322 5320 5317 5314 5311 5309 5307 5305 5303 5301 5298 5296 5294 5292 5291 5289 5288 5286 5286 5285 5283 5282 5282 5281 5280 5279 5278 5278 5279 5278 5278 5278 5277 5276 5275 5275 5276 5276 5275 5273 5272 5272 5272 5272 5271 5272 5272 5272 5272 5273 5275 5276 5277 5278 5280 5281 5283 5285 5286 5288 5291
5366 5363 5361 5358 5356 5354 5352 5350 5348 5346 5344 5342 5341 5339 5337 5336 5334 5333 5331 5330 5327 5326 5324 5322 5320 5319 5316 5314 5312 5309 5306 5303 5301 5299 5297 5295 5293 5291 5289 5287 5286 5284 5283 5282 5281 5280 5278 5278 5277 5276 5275 5274 5274 5274 5273 5273 5272 5272 5271 5270 5270 5271 5271 5270 5269 5268 5268 5267 5267 5267 5267 5267 5267 5267 5269 5270 5271 5272 5273 5274 5275 5276 5278 5279 5281 5283
5362 5360 5357 5355 5352 5350 5348 5346 5344 5342 5340 5339 5337 5335 5333 5332 5331 5329 5328 5326 5324 5322 5320 5319 5317 5316 5313 5311 5309 5307 5304 5301 5298 5296 5294 5292 5290 5288 5286 5285 5283 5281 5280 5279 5278 5277 5276 5274 5273 5272 5271 5271 5270 5269 5269 5268 5267 5267 5266 5266 5265 5265 5265 5265 5265 5265 5264 5263 5262 5262 5261 5261 5262 5263 5265 5266 5267 5268 5268 5269 5270 5271 5272 5273 5275 5276
5359 5356 5353 5351 5349 5346 5345 5342 5340 5338 5336 5335 5333 5331 5330 5328 5327 5325 5324 5322 5321 5319 5317 5316 5314 5312 5310 5308 5306 5304 5301 5299 5296 5294 5292 5290 5288 5286 5284 5282 5281 5279 5277 5276 5275 5274 5273 5271 5270 5269 5268 5267 5266 5266 5265 5264 5263 5262 5262 5261 5261 5261 5260 5261 5261 5260 5259 5258 5257 5257 5256 5256 5257 5259 5261 5262 5263 5263 5264 5265 5266 5266 5267 5268 5269 5271
5355 5353 5350 5348 5345 5343 5341 5339 5336 5335 5333 5331 5329 5327 5326 5325 5323 5322 5320 5319 5317 5316 5314 5312 5311 5309 5307 5305 5303 5301 5300 5297 5295 5292 5290 5288 5286 5284 5282 5280 5278 5276 5275 5273 5272 5270 5269 5268 5267 5266 5265 5263 5262 5261 5261 5260 5259 5258 5257 5257 5256 5256 5256 5256 5256 5255 5254 5254 5253 5252 5251 5252 5253 5254 5256 5257 5258 5259 5260 5261 5261 5262 5263 5263 5265 5266
5352 5349 5347 5344 5342 5339 5337 5335 5333 5331 5329 5327 5326 5324 5322 5321 5320 5319 5317 5316 5315 5313 5311 5310 5308 5306 5305 5303 5301 5300 5298 5296 5293 5291 5289 5286 5284 5282 5280 5278 5276 5274 5272 5271 5269 5267 5266 5265 5263 5262 5261 5260 5258 5257 5256 5256 5255 5254 5253 5252 5252 5251 5251 5251 5251 5251 5250 5250 5249 5248 5247 5248 5248 5249 5251 5252 5254 5255 5256 5257 5257 5258 5259 5259 5260 5261
5349 5346 5344 5341 5339 5336 5334 5332 5330 5328 5326 5324 5323 5321 5320 5318 5317 5316 5315 5313 5312 5311 5309 5307 5306 5304 5303 5301 5299 5298 5296 5294 5292 5290 5287 5285 5283 5281 5278 5276 5274 5272 5270 5268 5266 5265 5263 5261 5260 5258 5257 5256 5254 5252 5251 5251 5250 5249 5248 5247 5247 5247 5246 5246 5246 5246 5246 5245 5245 5244 5244 5244 5244 5245 5246 5248 5249 5251 5252 5253 5253 5254 5255 5256 5256 5257
5346 5343 5341 5338 5336 5333 5331 5329 5327 5325 5323 5321 5320 5319 5317 5316 5315 5314 5312 5311 5310 5309 5307 5306 5304 5303 5301 5300 5298 5296 5294 5292 5290 5288 5286 5284 5281 5279 5277 5274 5272 5270 5268 5266 5264 5262 5260 5259 5257 5255 5253 5251 5249 5247 5246 5244 5244 5243 5243 5242 5242 5241 5241 5241 5241 5242 5241 5241 5241 5240 5240 5240 5240 5241 5242 5243 5245 5246 5247 5249 5250 5250 5251 5252 5253 5254
5343 5341 5338 5336 5333 5331 5328 5326 5324 5322 5321 5319 5318 5316 5315 5314 5313 5311 5311 5309 5308 5307 5305 5304 5303 5301 5300 5298 5296 5295 5293 5291 5288 5286 5284 5282 5280 5277 5275 5273 5271 5268 5266 5264 5262 5260 5258 5256 5254 5253 5251 5248 5246 5243 5241 5239 5238 5238 5237 5236 5236 5236 5236 5236 5236 5236 5237 5236 5236 5236 5236 5236 5236 5237 5238 5239 5240 5241 5243 5245 5246 5247 5247 5248 5249 5251